Tracking 25709 objects as of 23-May-2022
HD Live streaming from Space Station
objects crossing your sky now

SPACEBEE-111

Track SPACEBEE-111 now!
10-day predictions


NORAD ID: 48904
Int'l Code: 2021-059AB
Perigee: 517.0 km
Apogee: 531.9 km
Inclination: 97.6 °
Period: 95.0 minutes
Semi major axis: 6895 km
RCS: Unknown
Launch date: June 30, 2021
Source: United States (US)
Launch site: AIR FORCE EASTERN TEST RANGE (AFETR)
aabbcc
Your satellite tracking list
Your tracking list is empty




NASA's NSSDC Master Catalog

Two Line Element Set (TLE):
1 48904U 21059AB  22143.83720950  .00015246  00000-0  79037-3 0  9995
2 48904  97.5535 273.9850 0010821 183.0537 177.0631 15.16213560 50228
Source of the keplerian elements: AFSPC